GFSMW_850_dewp_147.txt.gz
Dewpoint
-5 -5 -3 -0 3 3 4 5 3 2 2 1 2 9 11 11 12 12 12 12 13 13 10 10 12 13 13 13 13 12 12 12 12 11 10 11 10 11 10 10 10 10 10
-4 -3 0 1 2 2 3 2 4 5 3 2 -1 0 4 8 10 11 12 13 13 14 11 10 12 12 12 13 13 13 12 13 12 12 11 12 11 11 11 11 11 11 11
-0 1 1 1 1 2 2 2 0 1 7 4 2 0 0 4 8 10 11 12 13 13 13 13 13 12 12 13 12 13 13 12 12 12 12 11 11 11 11 11 11 11 11
1 1 1 1 1 1 2 2 4 5 5 8 6 3 3 2 6 9 10 11 13 13 13 13 13 12 13 13 12 12 12 12 12 12 12 11 11 10 11 11 11 11 11
0 0 0 0 0 0 1 0 4 6 7 8 9 10 10 6 2 7 10 12 12 13 13 13 13 13 13 13 12 11 8 6 4 11 11 12 11 11 10 11 11 10 10
0 0 -0 -0 -0 -0 -1 -0 1 3 5 6 8 8 9 11 9 7 8 12 12 12 12 12 12 13 13 12 12 9 6 6 5 9 12 11 12 12 11 10 10 10 9
-0 -1 -1 -0 0 -0 -1 -0 -0 0 2 3 5 7 9 10 12 10 10 12 12 12 12 11 11 13 12 12 10 11 7 7 5 9 7 10 10 12 11 11 10 10 11
-1 -1 -1 0 -0 -1 -1 -1 -0 -0 0 1 2 5 8 9 11 12 12 12 12 13 13 12 12 12 12 10 7 4 6 6 6 6 7 6 7 11 11 12 10 10 11
-1 -1 -1 -0 -1 -2 -3 -1 -2 -1 -1 -0 1 2 5 6 7 10 12 12 11 11 12 11 10 8 7 7 7 4 5 7 5 4 6 6 4 9 11 10 11 10 11
-1 -1 -1 -1 -2 -3 -3 -3 -1 -2 -2 -1 -1 -0 2 2 3 5 8 10 11 11 11 11 9 6 5 4 4 5 4 5 8 8 11 10 8 10 11 11 11 11 11
-2 -2 -2 -2 -3 -4 -4 -4 -2 -2 -3 -1 -2 -1 1 1 1 2 4 6 7 9 9 9 9 8 10 10 10 9 11 10 11 11 11 10 11 11 11 11 11 11 11
-3 -3 -3 -3 -5 -7 -6 -4 -3 -3 -3 -3 -1 -3 -1 0 -0 1 2 3 4 4 5 7 7 7 8 8 10 10 10 10 11 11 11 11 11 11 11 11 11 11 11
-4 -4 -4 -4 -5 -7 -7 -7 -4 -4 -3 -5 -2 -4 -2 -0 -0 -1 0 1 2 3 3 3 2 2 4 7 9 8 9 10 10 10 10 10 10 11 11 11 11 11 11
-5 -5 -6 -6 -6 -7 -7 -7 -6 -5 -5 -5 -4 -5 -3 -0 1 -0 -1 -1 0 1 1 1 1 1 2 3 4 5 7 9 9 10 10 9 10 11 10 11 11 11 11
-6 -6 -7 -7 -6 -7 -7 -7 -6 -6 -6 -5 -5 -5 -5 -4 -2 -1 -0 -1 -1 -1 -0 1 0 0 -1 2 -0 -0 1 3 6 8 8 10 8 10 10 10 11 11 11
-7 -7 -7 -7 -7 -7 -7 -7 -7 -6 -7 -6 -6 -6 -6 -5 -5 -4 -3 -3 -3 -2 -2 -0 -0 -1 1 -0 0 -0 0 -0 1 1 3 8 9 9 10 10 10 11 11
-8 -8 -7 -8 -7 -7 -7 -7 -7 -7 -6 -7 -7 -6 -6 -6 -6 -5 -5 -4 -4 -3 -4 -3 -3 -1 -0 -1 -1 -1 -2 -1 0 1 3 5 7 8 10 9 9 10 7
-7 -8 -8 -8 -8 -8 -8 -7 -7 -7 -7 -7 -7 -7 -7 -7 -6 -6 -5 -5 -4 -5 -4 -4 -4 -4 -3 -2 -1 -1 -1 -2 -1 0 1 4 5 7 8 9 9 10 9
-8 -8 -8 -8 -8 -8 -8 -8 -7 -7 -7 -7 -7 -7 -7 -7 -7 -7 -6 -6 -5 -5 -5 -5 -5 -5 -4 -3 -3 -2 -1 -2 -2 -1 -1 1 2 5 7 8 9 9 9
-8 -9 -9 -9 -9 -9 -8 -8 -7 -7 -7 -8 -8 -7 -7 -7 -7 -7 -6 -6 -6 -6 -5 -5 -5 -5 -4 -4 -4 -3 -3 -3 -2 -2 -3 -2 1 2 6 7 8 8 9
-8 -9 -9 -9 -9 -9 -9 -8 -8 -8 -8 -8 -8 -8 -8 -7 -7 -7 -7 -7 -7 -7 -7 -7 -6 -6 -5 -5 -5 -5 -4 -3 -3 -2 -2 -3 -2 -0 2 6 7 8 9
-10 -10 -10 -10 -10 -9 -9 -9 -9 -8 -8 -8 -8 -8 -8 -8 -8 -8 -8 -8 -8 -8 -8 -9 -9 -8 -7 -6 -6 -5 -5 -4 -3 -2 -2 -2 -2 -1 -0 3 6 7 8
-10 -10 -11 -10 -10 -10 -10 -10 -9 -9 -9 -9 -9 -9 -9 -9 -9 -9 -9 -9 -9 -9 -9 -9 -9 -9 -9 -8 -8 -8 -7 -5 -4 -3 -2 -1 -1 -0 -0 2 4 7 7
-10 -11 -11 -11 -10 -10 -10 -10 -9 -9 -10 -10 -10 -9 -9 -9 -9 -9 -9 -9 -10 -10 -10 -10 -10 -10 -10 -10 -12 -11 -9 -8 -6 -5 -3 -2 -1 0 1 3 4 5 6
-11 -11 -11 -10 -10 -11 -10 -10 -10 -10 -10 -10 -10 -10 -10 -10 -10 -10 -10 -10 -10 -11 -11 -11 -11 -11 -11 -11 -12 -12 -12 -10 -9 -7 -5 -3 -2 -1 0 2 3 4 4
-10 -10 -10 -10 -11 -11 -10 -10 -11 -11 -11 -11 -10 -10 -10 -10 -10 -10 -10 -10 -10 -11 -11 -11 -12 -12 -12 -12 -12 -12 -12 -12 -11 -9 -7 -6 -5 -3 -2 -1 -0 1 1

GFSMW_850_dewp_150.txt.gz
Dewpoint
-1 0 1 1 -0 2 1 -1 -4 -8 2 3 2 3 3 6 11 13 12 13 13 13 11 12 10 12 12 14 13 12 11 12 12 11 10 11 11 10 10 9 10 10 10
-0 0 1 1 1 1 -1 -1 -1 -1 -4 -0 3 6 5 2 4 9 10 11 13 13 13 12 13 11 12 14 13 13 12 12 13 12 11 11 11 11 11 10 10 10 10
-1 -0 -0 -0 -0 0 -1 -2 -2 -1 0 1 -1 4 3 3 4 1 8 11 11 12 13 12 13 13 12 13 13 13 13 12 12 12 11 12 11 11 11 10 10 10 10
-0 -0 -0 -0 0 0 0 -1 -2 -2 -1 2 4 5 7 8 7 9 8 4 11 13 13 12 12 12 13 12 13 13 12 13 12 11 12 11 10 10 10 10 10 10 11
-1 -1 -1 -1 -0 0 0 -0 -1 -2 -1 0 4 4 5 7 8 8 9 8 9 9 12 12 12 13 13 13 13 12 13 12 11 11 12 11 10 10 9 11 11 11 10
-1 -2 -1 -1 -0 -0 -1 -1 -1 -1 -1 -1 1 3 4 5 6 6 8 9 8 11 11 9 11 13 13 12 13 12 12 11 11 9 9 10 10 9 11 11 11 10 9
-2 -2 -1 -1 -1 -2 -2 -2 -1 -1 -2 -1 -0 1 3 4 5 6 7 8 10 10 10 10 9 9 11 12 12 12 13 13 11 10 9 8 10 9 10 11 10 10 10
-2 -2 -1 -1 -1 -2 -3 -4 -2 -2 -2 -2 -1 -0 1 3 3 5 7 9 11 11 10 9 11 12 12 11 11 12 12 12 10 8 6 9 7 6 9 9 8 10 11
-2 -2 -2 -2 -1 -2 -3 -4 -4 -2 -2 -2 -2 -1 -0 1 2 3 4 8 9 11 11 7 8 9 11 12 11 12 11 8 7 7 8 10 8 6 6 6 6 7 10
-3 -3 -2 -2 -2 -3 -5 -6 -6 -3 -3 -3 -3 -2 -1 -0 1 2 3 6 6 8 11 11 11 11 11 11 10 8 6 5 6 5 8 8 8 5 6 5 4 4 9
-3 -3 -3 -3 -3 -5 -6 -7 -6 -5 -4 -4 -4 -3 -2 -1 -0 0 2 3 4 5 7 10 10 10 9 7 6 6 7 6 6 6 8 9 8 6 8 7 2 3 10
-5 -4 -4 -4 -5 -6 -6 -7 -7 -6 -5 -4 -4 -5 -4 -3 -1 -2 1 2 2 2 4 6 7 8 9 10 10 10 10 9 9 10 10 10 11 10 10 10 10 11 10
-5 -5 -5 -6 -6 -6 -6 -6 -7 -7 -6 -5 -5 -5 -5 -5 -3 -2 -1 1 -0 0 2 4 5 5 6 7 9 9 9 10 10 10 10 9 10 10 10 10 10 10 10
-6 -6 -7 -7 -7 -7 -7 -7 -7 -7 -6 -6 -6 -6 -6 -5 -5 -3 -2 -1 0 -1 0 2 3 3 4 5 6 8 8 8 9 9 9 9 9 10 10 9 9 11 10
-6 -7 -7 -7 -7 -7 -7 -7 -7 -7 -7 -6 -6 -7 -6 -6 -6 -5 -2 -1 -1 -0 -1 0 1 2 2 2 3 3 2 2 3 6 7 8 8 9 9 9 9 9 10
-7 -8 -8 -8 -8 -7 -8 -7 -7 -7 -7 -7 -7 -7 -7 -7 -6 -6 -5 -2 -0 -1 -1 -2 -1 0 0 -0 -0 -1 -2 -2 -1 -0 1 3 6 8 8 9 9 9 10
-7 -8 -8 -8 -8 -8 -8 -8 -7 -7 -7 -7 -7 -7 -7 -7 -7 -6 -6 -5 -5 -3 -1 -1 -3 -3 -2 -2 -2 -2 -1 -2 -1 -1 -0 0 2 3 4 7 9 9 9
-7 -8 -8 -8 -8 -8 -8 -8 -7 -7 -7 -7 -8 -7 -7 -7 -7 -7 -7 -6 -6 -5 -5 -4 -4 -4 -4 -4 -3 -4 -3 -2 -2 -1 -1 -1 -0 1 2 4 5 7 8
-7 -8 -9 -9 -9 -9 -8 -8 -8 -7 -8 -8 -8 -7 -7 -7 -7 -7 -7 -7 -6 -6 -6 -5 -5 -5 -4 -5 -5 -5 -4 -4 -4 -3 -2 -1 -2 -1 0 1 2 4 6
-8 -9 -9 -10 -9 -9 -9 -9 -9 -8 -9 -9 -8 -8 -8 -8 -8 -8 -7 -7 -7 -7 -7 -7 -6 -6 -5 -6 -6 -6 -5 -4 -4 -4 -3 -3 -2 -2 -2 -2 1 2 4
-9 -10 -10 -10 -10 -10 -10 -10 -9 -8 -9 -9 -8 -9 -8 -8 -8 -8 -8 -8 -8 -9 -9 -8 -8 -8 -8 -7 -8 -9 -9 -7 -5 -5 -4 -4 -3 -3 -2 -0 1 2 2
-10 -10 -11 -11 -10 -10 -10 -10 -9 -9 -10 -9 -9 -9 -9 -9 -9 -9 -9 -9 -9 -9 -10 -10 -11 -11 -11 -10 -9 -12 -12 -11 -8 -6 -5 -5 -4 -3 -2 -1 -0 1 2
-10 -11 -11 -11 -10 -10 -10 -10 -9 -10 -10 -10 -10 -9 -9 -9 -9 -9 -9 -9 -9 -10 -10 -10 -10 -11 -12 -12 -13 -13 -13 -13 -12 -11 -9 -7 -5 -4 -3 -1 -0 0 1
-11 -11 -11 -11 -11 -11 -11 -10 -10 -10 -10 -10 -10 -10 -10 -10 -10 -9 -10 -10 -10 -10 -10 -10 -11 -11 -12 -12 -13 -13 -13 -13 -13 -12 -11 -10 -7 -5 -3 -2 -1 -0 1
-10 -10 -10 -11 -11 -11 -11 -10 -11 -11 -11 -11 -11 -10 -10 -10 -10 -10 -10 -10 -10 -10 -11 -11 -12 -12 -12 -13 -12 -11 -12 -12 -11 -11 -10 -8 -7 -6 -5 -4 -3 -1 -0
-10 -11 -11 -11 -11 -11 -11 -12 -12 -12 -12 -11 -11 -11 -11 -11 -10 -11 -10 -11 -11 -11 -11 -11 -12 -12 -13 -13 -12 -12 -12 -11 -10 -9 -9 -9 -8 -8 -8 -6 -5 -3 -2

GFSMW_850_dewp_156.txt.gz
Dewpoint
-3 -6 -9 -11 -12 -12 -13 -12 -12 -11 -12 -13 -12 -11 -10 -9 -10 -12 -3 5 10 11 12 12 12 13 13 12 11 11 11 11 13 12 11 10 11 11 10 10 10 9 9
-2 -2 -6 -9 -10 -9 -10 -11 -11 -10 -9 -8 -8 -7 -7 -8 -7 -7 -8 -8 -2 7 9 10 10 13 13 13 11 11 12 10 12 12 12 11 12 12 12 11 10 10 9
-1 -2 -4 -4 -6 -9 -9 -8 -8 -9 -9 -9 -8 -7 -7 -7 -8 -9 -8 -7 -5 -5 1 4 8 11 12 12 12 11 10 11 10 11 10 11 11 11 11 11 11 11 10
-2 -3 -4 -5 -6 -6 -7 -8 -8 -8 -8 -8 -9 -7 -4 -4 -4 -5 -6 -6 -5 -2 -1 -2 0 4 8 12 12 13 11 10 11 11 10 11 10 10 10 10 10 11 11
-3 -5 -7 -6 -4 -5 -5 -6 -7 -8 -9 -9 -8 -7 -4 -3 -3 -4 -4 -5 -4 -2 1 1 1 1 3 8 12 12 10 12 11 12 11 10 9 10 10 9 10 12 11
-3 -4 -4 -4 -4 -4 -4 -5 -7 -8 -9 -9 -9 -7 -4 -3 -3 -3 -3 -3 -2 -2 1 3 2 3 2 2 9 11 11 10 11 11 10 9 11 11 11 10 10 10 10
-3 -3 -3 -3 -3 -4 -5 -6 -7 -8 -9 -9 -8 -7 -4 -3 -3 -3 -3 -2 -1 -0 1 3 3 3 4 1 3 11 10 10 9 9 10 10 11 11 11 10 9 10 9
-3 -3 -3 -3 -4 -5 -6 -7 -8 -8 -8 -8 -7 -5 -3 -4 -3 -4 -4 -3 -2 -1 1 2 3 4 4 4 1 7 10 11 10 9 8 8 9 9 10 10 8 6 5
-4 -3 -4 -4 -6 -7 -7 -7 -8 -8 -8 -8 -7 -6 -4 -4 -4 -5 -4 -4 -3 -1 -0 1 2 4 5 6 6 4 9 11 10 9 7 7 8 10 10 11 8 7 8
-4 -4 -5 -6 -7 -7 -7 -8 -8 -8 -8 -8 -8 -8 -6 -5 -5 -6 -5 -4 -3 -2 -1 1 2 3 5 7 8 7 8 9 9 8 8 7 8 10 11 10 7 7 8
-5 -6 -6 -7 -7 -7 -8 -8 -8 -8 -8 -7 -8 -8 -7 -5 -6 -6 -6 -5 -4 -3 -1 -1 -0 1 3 6 7 9 8 7 7 8 7 8 10 11 10 8 7 7 7
-6 -6 -7 -8 -8 -8 -8 -9 -9 -9 -8 -7 -8 -9 -8 -7 -6 -6 -6 -5 -5 -3 -2 -2 -2 -0 1 2 3 8 8 10 9 10 10 11 10 10 8 8 8 8 8
-6 -7 -8 -8 -8 -8 -9 -8 -9 -9 -8 -8 -8 -9 -7 -7 -7 -6 -6 -6 -5 -4 -3 -3 -2 -1 0 1 0 3 6 8 9 9 9 9 9 8 8 8 9 9 9
-7 -7 -7 -8 -8 -9 -8 -8 -9 -9 -8 -7 -9 -9 -8 -7 -7 -7 -7 -6 -6 -5 -5 -4 -4 -3 -2 -0 0 1 2 2 5 7 7 8 8 8 9 9 9 9 8
-7 -7 -7 -8 -8 -9 -9 -9 -9 -9 -8 -8 -10 -10 -9 -8 -8 -7 -8 -7 -7 -6 -6 -5 -5 -5 -4 -4 -1 -0 -0 -1 2 3 5 6 7 8 8 8 8 7 8
-7 -7 -8 -8 -9 -9 -9 -9 -9 -9 -9 -9 -11 -10 -9 -9 -8 -9 -8 -8 -7 -7 -7 -6 -6 -6 -6 -6 -3 -1 -1 -1 -1 1 1 4 6 7 7 7 7 8 8
-7 -8 -8 -9 -10 -10 -10 -10 -10 -10 -10 -10 -12 -10 -9 -8 -8 -9 -9 -9 -9 -9 -8 -7 -7 -7 -7 -6 -4 -2 -1 -2 -2 -1 -1 -0 1 2 5 5 5 6 7
-8 -9 -9 -10 -10 -10 -10 -10 -10 -10 -10 -11 -12 -10 -9 -9 -9 -9 -9 -8 -9 -11 -10 -9 -9 -9 -8 -8 -7 -5 -3 -3 -3 -2 -2 -3 -2 -2 -2 -2 -1 -0 2
-9 -10 -10 -10 -11 -11 -10 -10 -10 -10 -11 -12 -11 -10 -9 -9 -9 -10 -10 -9 -9 -11 -11 -11 -12 -11 -12 -11 -12 -13 -12 -10 -7 -5 -5 -4 -4 -4 -3 -3 -3 -3 -3
-10 -10 -10 -11 -11 -11 -10 -10 -11 -11 -12 -12 -11 -10 -10 -10 -10 -10 -10 -10 -9 -11 -11 -11 -12 -12 -12 -13 -12 -12 -10 -12 -12 -12 -10 -10 -10 -7 -5 -5 -4 -4 -4
-10 -10 -11 -11 -11 -11 -11 -12 -12 -13 -12 -12 -11 -11 -11 -11 -10 -11 -10 -10 -10 -11 -11 -11 -12 -13 -13 -12 -11 -11 -11 -11 -11 -11 -11 -11 -11 -10 -8 -6 -5 -4 -4
-10 -10 -11 -12 -11 -12 -12 -13 -13 -13 -12 -12 -11 -11 -11 -11 -11 -11 -11 -11 -11 -11 -11 -11 -12 -13 -14 -12 -12 -11 -11 -11 -10 -10 -10 -9 -9 -8 -7 -6 -6 -5 -4
-10 -12 -14 -14 -15 -14 -14 -14 -13 -13 -13 -13 -12 -11 -11 -12 -11 -12 -12 -11 -11 -11 -11 -11 -12 -14 -13 -13 -12 -12 -12 -12 -11 -10 -11 -10 -10 -10 -10 -9 -8 -6 -5
-14 -15 -16 -16 -15 -14 -14 -13 -14 -13 -13 -13 -12 -12 -13 -12 -11 -12 -13 -12 -12 -11 -12 -12 -13 -14 -13 -12 -12 -13 -14 -14 -13 -13 -12 -12 -12 -12 -12 -11 -10 -8 -7
-15 -16 -16 -14 -14 -14 -13 -14 -14 -13 -13 -13 -12 -12 -13 -12 -12 -12 -13 -13 -12 -12 -12 -12 -13 -13 -13 -13 -13 -13 -14 -14 -14 -14 -13 -13 -13 -13 -12 -12 -12 -11 -10
-16 -17 -15 -14 -14 -14 -15 -15 -14 -14 -14 -13 -12 -13 -14 -11 -13 -13 -14 -13 -13 -12 -13 -13 -14 -13 -13 -13 -13 -15 -15 -15 -15 -15 -15 -14 -14 -14 -13 -13 -13 -12 -12

GFSMW_850_dewp_159.txt.gz
Dewpoint
-2 -5 -8 -11 -15 -18 -18 -16 -15 -15 -15 -15 -14 -15 -15 -16 -18 -17 -14 -12 -10 -8 -8 -5 3 9 10 11 11 12 13 12 11 11 10 9 10 10 10 11 11 10 9
-3 -4 -6 -8 -10 -11 -11 -11 -11 -12 -12 -12 -12 -12 -12 -13 -12 -14 -14 -13 -11 -9 -8 -7 -5 -2 5 8 10 10 12 13 12 11 10 10 9 9 10 10 11 10 10
-3 -4 -4 -5 -6 -7 -7 -8 -9 -11 -12 -12 -12 -12 -12 -13 -14 -14 -12 -11 -10 -10 -7 -6 -5 -4 -2 1 4 7 10 11 13 11 10 10 10 9 9 10 11 11 11
-3 -3 -3 -4 -5 -5 -6 -7 -8 -9 -10 -10 -10 -10 -9 -9 -9 -8 -9 -9 -8 -7 -7 -6 -5 -3 -1 -0 -0 2 8 10 11 12 12 11 10 9 10 11 10 11 11
-3 -3 -3 -4 -5 -6 -7 -8 -9 -10 -10 -10 -9 -9 -9 -8 -9 -8 -6 -6 -6 -6 -5 -5 -5 -3 -0 1 1 1 1 4 9 11 12 12 11 11 10 10 9 9 9
-3 -3 -3 -4 -5 -6 -7 -7 -9 -9 -9 -9 -9 -8 -7 -6 -5 -5 -5 -5 -5 -4 -4 -4 -4 -3 -0 1 2 2 3 2 3 11 12 12 12 10 10 11 10 7 7
-3 -4 -5 -5 -6 -6 -7 -8 -9 -10 -10 -9 -9 -8 -8 -7 -5 -4 -4 -4 -4 -4 -4 -4 -2 -2 0 2 3 4 4 3 3 5 12 12 11 9 7 9 10 10 10
-3 -4 -4 -5 -6 -6 -8 -10 -11 -11 -11 -10 -9 -9 -9 -8 -7 -5 -4 -5 -5 -5 -4 -3 -2 -2 0 1 2 3 4 5 5 4 10 11 9 9 10 9 10 10 10
-4 -4 -5 -6 -7 -7 -8 -9 -10 -11 -11 -10 -9 -9 -9 -9 -8 -6 -5 -5 -5 -5 -5 -3 -2 -1 -0 -0 1 3 4 5 7 7 8 10 9 9 10 10 11 10 10
-4 -5 -6 -7 -7 -8 -8 -9 -10 -10 -11 -11 -10 -10 -10 -9 -9 -8 -6 -6 -5 -5 -5 -4 -2 -2 -2 -1 0 2 4 6 7 8 9 8 8 9 7 6 8 9 9
-5 -6 -7 -7 -8 -8 -9 -9 -9 -10 -11 -11 -11 -11 -11 -9 -9 -8 -7 -6 -6 -6 -5 -4 -3 -3 -3 -2 -0 1 2 5 5 9 9 8 8 7 7 8 7 8 10
-6 -7 -7 -8 -8 -9 -9 -10 -10 -10 -10 -10 -10 -11 -12 -9 -9 -8 -7 -6 -6 -6 -5 -5 -4 -4 -4 -3 -1 0 1 3 6 7 9 8 7 7 7 8 9 10 9
-6 -7 -7 -8 -8 -8 -9 -10 -10 -10 -10 -10 -10 -11 -12 -10 -9 -8 -7 -8 -7 -6 -6 -5 -5 -5 -5 -4 -3 -1 -0 1 1 7 8 9 9 9 10 10 10 9 8
-7 -7 -7 -8 -8 -9 -10 -10 -10 -10 -10 -11 -11 -12 -12 -10 -9 -8 -9 -8 -8 -8 -7 -6 -6 -6 -6 -5 -4 -4 -2 -0 -0 1 4 8 9 9 9 9 9 9 9
-7 -7 -7 -8 -9 -10 -10 -10 -10 -10 -10 -11 -12 -13 -11 -9 -9 -9 -9 -8 -8 -10 -8 -7 -7 -7 -8 -8 -6 -5 -4 -2 -0 -1 -2 1 3 7 8 8 9 9 9
-7 -7 -8 -9 -10 -10 -10 -10 -10 -10 -10 -11 -13 -13 -10 -9 -9 -9 -10 -9 -8 -11 -10 -9 -10 -8 -8 -9 -7 -6 -5 -4 -3 -1 -2 -1 -1 2 4 6 8 8 8
-7 -8 -9 -10 -10 -10 -10 -10 -10 -11 -11 -13 -13 -12 -10 -9 -10 -9 -10 -10 -9 -11 -11 -10 -11 -10 -11 -9 -8 -8 -7 -5 -4 -3 -2 -2 -1 0 1 3 5 7 7
-8 -9 -10 -10 -10 -10 -11 -11 -11 -11 -13 -14 -13 -11 -10 -10 -10 -9 -11 -10 -10 -10 -11 -10 -12 -12 -12 -11 -10 -9 -9 -8 -7 -5 -4 -2 -3 -2 -2 -2 -0 2 3
-9 -10 -10 -10 -10 -11 -11 -11 -12 -14 -14 -13 -12 -11 -11 -11 -10 -11 -11 -11 -11 -10 -11 -10 -12 -13 -13 -11 -11 -10 -11 -9 -8 -7 -6 -4 -3 -4 -4 -4 -3 -3 -2
-10 -10 -10 -10 -11 -12 -12 -13 -14 -14 -14 -13 -12 -11 -11 -12 -11 -11 -11 -11 -11 -11 -11 -10 -12 -14 -13 -12 -11 -11 -11 -11 -10 -8 -8 -7 -7 -2 -5 -5 -5 -4 -4
-10 -10 -10 -11 -13 -13 -14 -15 -15 -14 -13 -13 -12 -12 -11 -12 -11 -12 -12 -12 -12 -12 -11 -11 -13 -14 -13 -12 -12 -12 -11 -11 -11 -10 -10 -8 -8 -8 -7 -6 -6 -6 -5
-10 -10 -12 -15 -15 -15 -16 -15 -15 -14 -14 -13 -12 -12 -12 -12 -11 -12 -13 -12 -12 -12 -11 -11 -13 -14 -14 -13 -12 -12 -12 -11 -12 -11 -10 -9 -9 -10 -9 -9 -9 -9 -7
-11 -14 -16 -16 -16 -15 -15 -15 -15 -14 -14 -14 -12 -12 -13 -12 -12 -12 -13 -13 -13 -12 -12 -12 -13 -14 -13 -13 -13 -14 -13 -13 -13 -13 -12 -12 -10 -11 -11 -10 -11 -10 -8
-15 -16 -16 -16 -16 -16 -16 -15 -15 -15 -14 -14 -12 -12 -14 -12 -12 -13 -13 -13 -13 -13 -13 -13 -14 -14 -13 -13 -13 -13 -15 -15 -15 -14 -14 -14 -13 -13 -11 -12 -12 -12 -11
-16 -17 -16 -15 -15 -15 -16 -15 -15 -15 -15 -15 -13 -13 -14 -12 -12 -14 -13 -13 -14 -13 -13 -13 -13 -13 -13 -13 -13 -14 -14 -14 -15 -15 -15 -15 -15 -15 -15 -14 -13 -13 -13
-17 -16 -15 -15 -15 -16 -16 -16 -15 -15 -15 -14 -13 -13 -14 -13 -13 -14 -14 -13 -14 -14 -14 -14 -14 -14 -14 -14 -14 -15 -16 -16 -15 -15 -15 -15 -15 -15 -15 -14 -14 -14 -14

GFSMW_850_dewp_162.txt.gz
Dewpoint
-5 -6 -8 -9 -10 -12 -12 -14 -15 -16 -17 -17 -18 -19 -18 -16 -16 -14 -15 -15 -14 -15 -15 -13 -13 -11 -9 -8 -5 5 9 11 11 13 12 12 8 9 10 9 8 8 9
-4 -6 -7 -8 -9 -10 -11 -11 -12 -13 -13 -13 -12 -12 -12 -13 -13 -13 -13 -12 -11 -10 -11 -11 -9 -9 -8 -8 -7 -5 -0 5 8 10 12 12 12 12 9 9 10 9 9
-5 -5 -6 -7 -7 -8 -9 -9 -11 -11 -11 -11 -11 -12 -12 -12 -12 -13 -13 -12 -10 -9 -9 -9 -9 -7 -6 -6 -5 -5 -2 2 2 8 10 11 11 10 8 9 8 8 9
-4 -4 -5 -5 -6 -8 -8 -10 -11 -11 -11 -11 -11 -11 -11 -10 -10 -9 -9 -9 -9 -8 -8 -8 -7 -6 -5 -4 -3 -0 -1 0 2 1 6 10 11 11 9 9 8 8 8
-4 -4 -4 -5 -6 -7 -8 -10 -12 -12 -13 -12 -12 -11 -10 -9 -9 -9 -8 -7 -6 -6 -6 -5 -5 -5 -5 -3 -2 -0 1 1 2 3 2 7 9 10 11 10 10 9 9
-3 -3 -4 -4 -6 -7 -8 -12 -13 -13 -14 -14 -13 -12 -11 -10 -10 -9 -9 -7 -6 -5 -5 -5 -5 -5 -4 -3 -2 -1 0 1 2 3 4 5 7 9 10 10 9 10 11
-3 -3 -4 -5 -6 -7 -11 -12 -13 -13 -13 -13 -13 -12 -11 -11 -11 -10 -9 -8 -7 -6 -5 -5 -5 -5 -4 -3 -1 -1 -1 -0 1 1 3 4 6 7 9 11 10 10 8
-3 -4 -4 -5 -7 -8 -11 -11 -12 -12 -12 -13 -13 -13 -13 -12 -11 -10 -9 -8 -7 -5 -5 -5 -5 -5 -4 -2 -2 -2 -1 -0 1 1 2 5 5 7 8 9 10 9 8
-4 -4 -5 -6 -7 -9 -10 -11 -11 -12 -12 -12 -13 -13 -13 -13 -12 -11 -10 -9 -8 -7 -6 -5 -5 -4 -4 -3 -3 -2 -2 -0 1 1 2 4 5 7 7 11 10 7 10
-4 -4 -5 -7 -8 -9 -9 -10 -10 -10 -11 -12 -12 -12 -13 -13 -13 -11 -10 -9 -9 -9 -7 -6 -5 -5 -4 -4 -4 -4 -3 -0 1 1 2 4 5 6 8 11 8 9 9
-4 -5 -6 -7 -8 -8 -9 -9 -10 -10 -11 -12 -13 -14 -14 -14 -13 -11 -10 -10 -9 -9 -8 -6 -6 -6 -6 -5 -6 -4 -4 -2 -1 -1 1 3 4 6 8 10 9 9 9
-5 -6 -7 -8 -8 -8 -9 -10 -10 -11 -12 -12 -13 -14 -15 -15 -12 -11 -10 -10 -10 -9 -9 -8 -7 -6 -7 -7 -7 -6 -4 -4 -3 -2 -1 3 4 6 8 9 8 8 7
-6 -6 -7 -8 -8 -8 -9 -10 -11 -11 -12 -12 -13 -15 -15 -14 -12 -10 -10 -10 -10 -9 -11 -10 -7 -7 -7 -7 -7 -7 -6 -5 -4 -3 -2 -1 4 7 9 10 9 8 7
-6 -7 -7 -8 -8 -9 -10 -10 -11 -11 -12 -13 -14 -15 -15 -12 -11 -10 -10 -10 -10 -9 -11 -11 -9 -11 -10 -8 -8 -9 -7 -6 -5 -4 -4 -2 -2 3 7 9 9 9 9
-7 -7 -7 -8 -9 -10 -10 -10 -11 -11 -12 -13 -15 -15 -14 -12 -11 -10 -10 -10 -10 -9 -11 -11 -10 -12 -11 -11 -10 -9 -8 -7 -6 -5 -5 -5 -4 -1 1 6 9 9 9
-7 -7 -8 -8 -9 -10 -10 -10 -11 -12 -13 -15 -15 -14 -13 -12 -11 -11 -11 -11 -11 -10 -11 -11 -11 -12 -11 -11 -10 -9 -9 -8 -7 -7 -6 -6 -3 -2 -1 0 7 7 9
-6 -7 -8 -9 -10 -10 -10 -11 -11 -13 -14 -15 -14 -13 -12 -12 -12 -11 -11 -11 -11 -11 -11 -11 -11 -13 -13 -12 -11 -10 -10 -9 -9 -8 -8 -7 -6 -3 -2 -1 3 3 7
-7 -8 -9 -9 -10 -10 -11 -11 -13 -15 -16 -15 -14 -13 -12 -12 -12 -11 -12 -12 -11 -11 -11 -11 -11 -14 -13 -12 -11 -10 -11 -11 -9 -8 -8 -8 -7 -7 -6 -1 -1 -0 0
-8 -9 -9 -10 -10 -11 -11 -14 -15 -16 -15 -14 -14 -13 -12 -12 -12 -12 -12 -12 -12 -12 -11 -11 -12 -14 -13 -13 -11 -11 -11 -12 -11 -9 -9 -8 -9 -8 -7 -3 -2 -3 -2
-9 -10 -10 -10 -11 -12 -15 -16 -16 -15 -15 -14 -13 -12 -12 -13 -13 -12 -13 -13 -12 -12 -12 -11 -13 -14 -14 -12 -12 -12 -12 -12 -12 -11 -10 -9 -9 -9 -8 -6 -4 -3 -4
-10 -10 -10 -11 -14 -16 -16 -16 -15 -16 -15 -14 -14 -12 -13 -13 -12 -13 -13 -13 -13 -13 -12 -12 -14 -14 -14 -13 -12 -13 -12 -12 -14 -12 -12 -11 -10 -9 -9 -8 -7 -6 -7
-10 -10 -12 -15 -16 -16 -16 -16 -16 -16 -15 -15 -14 -13 -13 -14 -12 -13 -13 -13 -14 -13 -13 -13 -14 -14 -14 -13 -13 -13 -13 -13 -15 -14 -13 -13 -12 -10 -10 -9 -8 -8 -6
-11 -12 -16 -16 -16 -16 -16 -17 -16 -16 -16 -15 -14 -13 -14 -14 -12 -13 -14 -13 -14 -13 -13 -13 -14 -14 -14 -14 -13 -14 -15 -15 -15 -15 -15 -14 -14 -14 -11 -11 -10 -9 -9
-13 -16 -16 -16 -16 -16 -17 -16 -16 -16 -16 -16 -15 -14 -14 -15 -13 -13 -14 -13 -13 -14 -14 -14 -14 -14 -14 -14 -14 -14 -15 -16 -16 -15 -15 -15 -15 -15 -14 -14 -12 -11 -10
-16 -17 -16 -16 -16 -17 -17 -17 -17 -17 -17 -16 -15 -15 -16 -15 -14 -14 -14 -13 -13 -14 -14 -14 -14 -15 -14 -14 -14 -15 -15 -15 -15 -16 -16 -16 -15 -15 -15 -15 -15 -14 -13
-17 -17 -16 -16 -17 -17 -17 -17 -18 -17 -17 -16 -16 -16 -16 -16 -15 -15 -15 -14 -13 -14 -15 -15 -15 -15 -15 -15 -15 -15 -15 -15 -15 -16 -15 -15 -15 -15 -15 -15 -15 -14 -14

GFSMW_850_dewp_165.txt.gz
Dewpoint
-5 -6 -7 -8 -10 -11 -13 -15 -16 -17 -17 -18 -19 -19 -17 -15 -14 -14 -14 -14 -13 -12 -12 -13 -13 -12 -10 -11 -12 -11 -10 -11 -7 0 7 10 10 12 11 12 11 11 10
-4 -5 -6 -8 -10 -11 -12 -13 -13 -13 -13 -13 -13 -13 -13 -13 -13 -13 -12 -12 -11 -11 -11 -10 -9 -9 -9 -10 -9 -9 -8 -5 -5 2 4 7 8 8 12 11 12 11 10
-5 -5 -6 -7 -9 -10 -11 -12 -13 -14 -14 -14 -15 -15 -15 -14 -13 -12 -12 -11 -10 -9 -8 -7 -7 -7 -7 -7 -7 -6 -5 -0 -0 2 3 5 8 9 10 10 10 11 11
-5 -5 -5 -6 -8 -9 -10 -13 -14 -14 -15 -15 -15 -15 -15 -15 -15 -15 -14 -13 -12 -10 -8 -7 -6 -6 -6 -5 -5 -5 -3 -1 0 1 2 3 4 5 8 10 10 10 8
-5 -4 -5 -6 -7 -9 -11 -13 -14 -14 -15 -15 -15 -15 -15 -15 -15 -14 -14 -14 -14 -12 -10 -7 -6 -5 -5 -5 -4 -3 -2 -1 -1 -0 0 1 2 3 5 7 9 9 7
-4 -4 -4 -6 -7 -8 -12 -13 -13 -13 -14 -14 -14 -14 -14 -14 -14 -14 -12 -12 -11 -11 -11 -9 -7 -5 -5 -5 -4 -2 -2 -2 -1 -1 -1 -1 1 2 4 5 7 9 10
-3 -3 -4 -5 -7 -8 -11 -12 -12 -12 -13 -14 -14 -15 -14 -14 -14 -14 -13 -12 -11 -10 -9 -10 -9 -6 -5 -5 -4 -3 -3 -2 -3 -2 -1 -0 0 1 2 3 5 6 9
-3 -3 -4 -5 -7 -9 -11 -11 -11 -12 -13 -14 -14 -14 -15 -15 -15 -14 -13 -11 -10 -9 -9 -8 -7 -5 -5 -5 -4 -4 -4 -5 -4 -3 -2 -0 0 1 2 3 5 6 8
-3 -3 -4 -6 -7 -9 -10 -11 -11 -11 -13 -13 -13 -14 -15 -15 -15 -14 -12 -10 -10 -9 -9 -8 -7 -6 -5 -5 -5 -6 -7 -6 -5 -4 -3 -1 -1 -1 0 2 3 5 7
-3 -3 -4 -6 -7 -9 -10 -10 -10 -12 -12 -13 -13 -14 -15 -16 -16 -13 -11 -10 -11 -10 -9 -8 -8 -7 -6 -6 -6 -6 -7 -6 -6 -5 -4 -2 -2 -2 -1 1 3 5 7
-3 -4 -5 -6 -8 -9 -9 -10 -11 -11 -12 -12 -14 -15 -16 -16 -14 -12 -12 -11 -11 -10 -9 -9 -9 -7 -8 -8 -8 -8 -8 -8 -7 -6 -5 -4 -2 -3 -2 1 3 5 6
-3 -4 -5 -7 -8 -8 -9 -10 -11 -11 -11 -12 -14 -15 -16 -15 -13 -12 -11 -10 -10 -10 -9 -10 -9 -8 -9 -9 -10 -8 -9 -8 -8 -7 -6 -5 -4 -4 -3 0 4 6 6
-4 -5 -6 -8 -8 -8 -9 -10 -11 -11 -12 -13 -15 -16 -15 -14 -13 -12 -11 -10 -10 -10 -9 -10 -9 -9 -10 -10 -10 -10 -9 -9 -8 -8 -7 -6 -6 -5 -4 -1 2 5 7
-4 -6 -7 -8 -8 -9 -10 -10 -11 -11 -12 -14 -16 -16 -14 -14 -13 -11 -11 -11 -11 -10 -10 -10 -10 -9 -10 -10 -10 -10 -9 -9 -9 -9 -8 -7 -6 -6 -6 -4 -1 3 5
-5 -7 -7 -8 -8 -9 -10 -10 -11 -11 -14 -16 -16 -15 -14 -14 -13 -12 -12 -12 -12 -11 -11 -10 -10 -10 -11 -11 -10 -10 -9 -10 -10 -8 -8 -8 -7 -7 -6 -6 -4 -2 4
-6 -7 -7 -8 -9 -10 -10 -10 -11 -13 -16 -16 -16 -15 -14 -14 -13 -12 -12 -12 -12 -12 -11 -10 -10 -11 -12 -12 -11 -10 -10 -10 -10 -9 -9 -9 -8 -7 -6 -6 -5 -3 1
-7 -7 -7 -8 -9 -10 -10 -11 -12 -15 -16 -16 -15 -15 -14 -14 -13 -12 -12 -12 -11 -11 -10 -10 -10 -11 -11 -12 -12 -11 -11 -10 -10 -10 -9 -9 -9 -8 -7 -7 -6 -4 -3
-7 -7 -8 -9 -10 -10 -10 -12 -15 -17 -16 -16 -15 -14 -14 -13 -12 -11 -11 -11 -11 -11 -11 -11 -11 -11 -12 -12 -12 -12 -11 -11 -11 -11 -10 -10 -10 -10 -9 -7 -5 -6 -4
-7 -8 -9 -10 -10 -10 -12 -16 -17 -17 -16 -16 -15 -13 -13 -13 -11 -11 -11 -11 -11 -11 -11 -11 -12 -12 -12 -12 -12 -12 -12 -12 -12 -13 -11 -11 -11 -10 -10 -8 -7 -6 -4
-8 -9 -10 -10 -10 -12 -16 -17 -17 -17 -16 -16 -15 -13 -13 -14 -11 -12 -12 -12 -12 -12 -11 -12 -12 -13 -13 -13 -12 -12 -12 -12 -13 -12 -14 -13 -12 -11 -10 -10 -10 -8 -7
-9 -10 -10 -10 -12 -16 -17 -17 -17 -16 -16 -16 -15 -14 -14 -14 -12 -12 -12 -12 -12 -12 -12 -12 -13 -13 -13 -13 -13 -13 -13 -13 -14 -13 -13 -15 -14 -13 -11 -10 -9 -9 -8
-9 -9 -10 -13 -16 -17 -17 -17 -17 -17 -17 -17 -16 -15 -15 -15 -13 -12 -12 -13 -13 -13 -13 -13 -13 -13 -14 -14 -13 -14 -14 -14 -15 -15 -15 -15 -15 -14 -12 -11 -10 -9 -8
-9 -11 -14 -16 -16 -16 -17 -17 -17 -17 -18 -17 -16 -16 -16 -16 -15 -14 -14 -14 -13 -13 -13 -13 -13 -14 -14 -14 -14 -14 -14 -15 -16 -15 -15 -15 -15 -15 -15 -13 -13 -10 -10
-11 -15 -16 -16 -16 -17 -17 -17 -18 -19 -18 -18 -17 -18 -18 -17 -16 -16 -15 -14 -14 -13 -13 -14 -14 -15 -14 -14 -15 -14 -14 -15 -16 -16 -16 -15 -15 -15 -15 -15 -14 -13 -12
-15 -16 -16 -16 -17 -17 -17 -18 -19 -19 -18 -18 -18 -18 -18 -18 -17 -17 -14 -14 -14 -14 -14 -15 -15 -15 -15 -15 -15 -16 -16 -15 -16 -16 -16 -16 -16 -15 -15 -15 -15 -14 -14
-16 -16 -16 -16 -17 -18 -18 -19 -19 -19 -19 -19 -19 -19 -19 -18 -18 -17 -17 -15 -15 -15 -15 -16 -16 -16 -16 -16 -16 -16 -16 -16 -16 -16 -16 -16 -15 -15 -15 -15 -15 -14 -14